Погода в Ухолово

Россия / Рязанская область     53°47′34″N   40°29′18″E
темп.,
°C
ветер,
м/с
пор.,
м/с
влажн.,
%
обл.,
%
осадки,
мм/ч
давл.,
гПа
погр.,
м
8 марта, пн
пн800:00−5з61588100 0.8 997607
03:00−8зюз5138765 0.8 1000285
06:00−8зюз5129065 0.0 999351
09:00−5зюз7129482 0.4 999818
12:00−4з81184100 0.4 10011199
15:00−5зсз71077100 0.8 10021274
18:00−9зсз458715 0.0 100584
21:00−12з34918 0.0 100845
9 марта, вт
вт900:00−13зсз33930 0.0 100925
03:00−15сз239718 0.0 101120
06:00−13ссз359699 0.1 1011136
09:00−15ссз469591 0.1 1013232
12:00−12ссз469290 0.0 1014397
15:00−11сз578995 0.1 1015602
18:00−14сз4894100 0.1 1016179
21:00−16сз499794 0.1 1019153
10 марта, ср
ср1000:00−18ссз369898 0.1 1020134
03:00−22сз3510078 0.1 102280
06:00−24сз479988 0.0 1024116
09:00−23ссз489684 0.0 1025259
12:00−19ссз479175 0.0 1026463
15:00−18ссз579087 0.0 1027571
18:00−20сз3496100 0.0 102861
21:00−23сз349560 0.0 103033
11 марта, чт
чт1100:00−23сз34940 0.0 103035
03:00−23зсз34954 0.0 103155
06:00−23сз349881 0.0 103159
09:00−20сз359778 0.0 1032179
12:00−15сз349074 0.0 1032327
15:00−12зсз359083 0.0 1031392
18:00−16зсз339658 0.0 103124
21:00−18з239829 0.0 103220
12 марта, пт
пт1200:00−19зюз23980 0.0 103320
03:00−20юз23990 0.0 103320
06:00−21ююз34970 0.0 103328
09:00−17ю47920 0.0 1032191
12:00−14ююв7127893 0.0 1029360
15:00−12ююв8147797 0.0 1026433
18:00−12ююв81682100 0.0 1023503
21:00−11ююв91778100 0.0 1021602